Showing default

NAVSPASUR ROD 1, 1515

Orbit data source: Space-Track

NAVSPASUR ROD 1, 1515 is a payload satellite owned by NRL (US) in LEO that was launched on Fri, 13 Aug 1965 UTC via a THOR ABLESTAR launch vehicle from the Air Force Western Test Range (AFWTR). Payload-class satellites include a variety of spacecraft equipped with specific instruments for various scientific and technological missions. These include communications satellites like Starlink; space stations such as the ISS; scientific satellites like the Hubble; Earth observation satellites from companies like Planet Labs, Umbra, and HawkEye 360; GPS; miniature CubeSats for education and research; and military/defense satellites.

Loading next visibility...
Identifier
1515, 1965-065G
Orbit
LEO
Country
Flag of USUS
Related business
Manufacturer
NRL
Mission
Spacecraft
Bus & Motor
LONG ROD, Unknown motor
Mass
3 kg wet, 3 kg dry
Launch date (UTC)
1965-08-13 (61 years ago)
Launch vehicle
THOR ABLESTAR
Launch site
Air Force Western Test Range (AFWTR)
Object type
Payload
Rocket body
Debris
Shape & HBR
Unknown
Radar Cross Section
Small (<0.1 m²)

Expand to show TLE details & history
Last TLE update: 13 hours ago

TLE from 13 hours ago
0 NAVSPASUR ROD 1
1  1515U 65065G   26110.27162123  .00000576  00000-0  86554-3 0  9997
2  1515  90.0216 214.1121 0063244 122.9619 270.4868 13.50967990972500
Epoch: 2026-04-20T06:31Z
TLE epoch observation values (Epoch: 2026-04-20T06:31:08.074Z)
Latitude
32.78193°
Longitude
-92.04953°
Altitude
1,072.896 km
Speed
7.319 km/s
True Right ascension
14h 16m 23s
True Declination
32° 37' 56"
Sunlit
Object was in full shadow at epoch
Visualization orbit readout
Latitude
Unknown
Longitude
Unknown
Altitude
Unknown
Speed
Unknown
Apparent Right ascension
Unknown
Apparent Declination
Unknown
Sunlit
N/A
Visualization observer readout
Local Sidereal Time
02:37:34
Azimuth
Unknown
Elevation
Unknown
Doppler factor
Unknown
Orbital elements
Apogee altitude
1,112.826 km
Perigee altitude
1,018.669 km
Semi-major axis
7,443.884 km
Eccentricity
0.00632
Inclination
90.0216°
RAAN
214.1121°
Arg. of periapsis
122.9619°
True anomaly
269.76207°
Mean anomaly
270.4868°
Eccentric anomaly
270.12444°
Mean motion
3.37943 °/min
Orbital period
106.53 mins
BSTAR
0.00086554
Loading maneuver chart data...
Computing Atmospheric mass density...
Loading historical data...
Loading historical data...
Loading historical data...
Loading historical data...
Loading historical data...
Loading historical data...
Loading historical data...

Documentation

Showing up to 5 results
|